If you wish to contribute or participate in the discussions about articles you are invited to join SKYbrary as a registered user

 Actions

Hermanos Serdán International Airport

From SKYbrary Wiki

MMPB
Airport
ICAO: MMPB – IATA: PBC
Summary
Name Hermanos Serdán International Airport
Region South America and Caribbean
Territory Mexico MX.gif
Location Hujotzingo, Puebla
Serving Puebla
Elevation 2,243.633 m
7,361 ft
7,361 ft2,243.633 m
Type medium airport
Coordinates 19° 9' 29.32" N, 98° 22' 17.21" W
Runways
Designator Length Width Surface ROPS
17/35 3600 m11,811.024 ft
45 m147.638 ft
ASP yes/yes


METAR
Observation MMPB 211745Z 04006KT 12SM FEW020 21/04 A3050 RMK 8/100 CI
Station Puebla, Pue.
Date/Time 21 February 2020 17:45:00
Wind direction 40°
Wind speed 06 kts
Lowest cloud amount few clouds
Temperature 21°C
Dew point 4°C
Humidity 32%
QNH hPa
Weather condition n/a

Puebla International Airport, officially Hermanos Serdán International Airport is an international airport located in the municipalities of Tlaltenango, Huejotzingo and Juan C. Bonilla near Puebla, Puebla, Mexico. It handles national and international air traffic for the city of Puebla.

Climatology

Subtropical highland Climate (Köppen climate classification Cwb)

Maps

Terrain

Loading map...

Airport Layout

Loading map...


Accidents & Serious Incidents at or in vicinity of MMPB

None on SKYbrary